Abilene, TX

10:34 AM CDT on August 25, 2016 (GMT -0500)
Abilene Regional

Weather History for KABI - February, 2012

Change the Weather History Date:

Monday, February 6, 2012

  Actual Average Record
Temperature  
Mean Temperature 42 °F 47 °F  
Max Temperature 49 °F 59 °F 84 °F (1904)
Min Temperature 34 °F 35 °F 9 °F (1989)
Degree Days  
Heating Degree Days 23 18  
Month to date heating degree days 82 112  
Since 1 July heating degree days 1582 1781  
Cooling Degree Days 0 0  
Month to date cooling degree days 0 0  
Year to date cooling degree days 0 1  
Moisture  
Dew Point 31 °F    
Average Humidity 67    
Maximum Humidity 89    
Minimum Humidity 45    
Precipitation  
Precipitation 0.00 in 0.04 in 1.10 in (1935)
Month to date precipitation 0.01 0.25  
Year to date precipitation 2.78 1.27  
Sea Level Pressure  
Sea Level Pressure 30.27 in    
Wind  
Wind Speed 3 mph (SE)    
Max Wind Speed 9 mph    
Max Gust Speed 12 mph    
Visibility 10 miles    
Events      
T = Trace of Precipitation, MM = Missing Value Source: NWS Daily Summary

Daily Weather History Graph

Daily Weather History Graph

Search for Another Location

Airport or City:

Trip Planner

Search our weather history database for the weather conditions in past years. The results will help you decide how hot, cold, wet, or windy it might be!

Date:

Astronomy

Feb. 06, 2012 Rise Set
Actual Time 7:29 AM CST 6:16 PM CST
Civil Twilight 7:04 AM CST 6:41 PM CST
Nautical Twilight 6:35 AM CST 7:10 PM CST
Astronomical Twilight 6:06 AM CST 7:39 PM CST
Moon 5:22 PM CST (2/6) 6:20 AM CST (2/6)
Length of Visible Light 11h 37m
Length of Day
10h 46m
Waxing Gibbous, 98% of the Moon is Illuminated
Feb 6
Waxing Gibbous
Feb 7
Full
Feb 14
Last Quarter
Feb 21
New
Feb 29
First Quarter

Hourly Weather History & Observations

Time (CST) Temp. Windchill Dew Point Humidity Pressure Visibility Wind Dir Wind Speed Gust Speed Precip Events Conditions
12:52 AM 37.0 °F - 30.0 °F 76% 30.36 in 10.0 mi Calm Calm - N/A   Overcast
1:52 AM 37.9 °F - 30.0 °F 73% 30.36 in 10.0 mi Calm Calm - N/A   Overcast
2:52 AM 37.9 °F - 30.9 °F 76% 30.35 in 10.0 mi Calm Calm - N/A   Overcast
3:52 AM 37.9 °F - 30.0 °F 73% 30.35 in 10.0 mi Calm Calm - N/A   Overcast
4:52 AM 37.9 °F - 30.0 °F 73% 30.33 in 10.0 mi Calm Calm - N/A   Overcast
5:52 AM 39.0 °F 36.8 °F 32.0 °F 76% 30.32 in 10.0 mi North 3.5 mph - N/A   Overcast
6:52 AM 37.9 °F - 30.9 °F 76% 30.33 in 10.0 mi Calm Calm - N/A   Clear
7:52 AM 34.0 °F - 30.9 °F 89% 30.36 in 10.0 mi Calm Calm - N/A   Clear
8:52 AM 37.0 °F - 33.1 °F 86% 30.37 in 10.0 mi Calm Calm - N/A   Overcast
9:52 AM 39.9 °F - 33.1 °F 77% 30.37 in 10.0 mi Calm Calm - N/A   Overcast
10:52 AM 42.1 °F - 30.9 °F 65% 30.35 in 10.0 mi Calm Calm - N/A   Overcast
11:52 AM 45.0 °F 42.6 °F 30.0 °F 56% 30.32 in 10.0 mi ESE 4.6 mph - N/A   Mostly Cloudy
12:52 PM 46.0 °F 42.5 °F 27.0 °F 47% 30.27 in 10.0 mi ESE 6.9 mph - N/A   Overcast
1:52 PM 46.9 °F - 28.0 °F 48% 30.23 in 10.0 mi Calm Calm - N/A   Overcast
2:52 PM 48.0 °F - 28.9 °F 48% 30.21 in 10.0 mi SE 5.8 mph - N/A   Overcast
3:52 PM 48.0 °F - 30.0 °F 50% 30.19 in 10.0 mi Calm Calm - N/A   Overcast
4:52 PM 48.0 °F - 28.9 °F 48% 30.18 in 10.0 mi South 6.9 mph - N/A   Overcast
5:52 PM 48.0 °F - 30.0 °F 50% 30.17 in 10.0 mi SSE 8.1 mph - N/A   Overcast
6:52 PM 48.0 °F - 30.9 °F 52% 30.17 in 10.0 mi SE 6.9 mph - N/A   Overcast
7:52 PM 46.9 °F - 32.0 °F 56% 30.17 in 10.0 mi SE 6.9 mph - N/A   Overcast
8:52 PM 46.9 °F - 32.0 °F 56% 30.17 in 10.0 mi ESE 5.8 mph - N/A   Overcast
9:52 PM 45.0 °F 41.2 °F 32.0 °F 60% 30.17 in 10.0 mi ESE 6.9 mph - N/A   Mostly Cloudy
10:52 PM 43.0 °F 40.3 °F 32.0 °F 65% 30.16 in 10.0 mi ESE 4.6 mph - N/A   Scattered Clouds
11:52 PM 42.1 °F 39.2 °F 33.1 °F 70% 30.17 in 10.0 mi ESE 4.6 mph - N/A   Partly Cloudy